Regional Weather Roundup
Issued by NWS

Home | Current Version | Previous Version | Graphics & Text | Print | Product List | Glossary On
Versions: 1 2 3 4 5 6 7 8 9 10 11 12 13 14 15 16 17 18 19 20 21 22 23 24 25 26 27 28 29 30 31 32 33 34 35 36 37 38 39 40 41 42 43 44 45 46 47 48 49 50
000
ASUS43 KOAX 211010
RWRNE

WEATHER ROUNDUP FOR NEBRASKA
NATIONAL WEATHER SERVICE OMAHA NE
500 AM CDT FRI JUL 21 2017

NOTES: SATELLITE DATA IS BEING USED TO AUGMENT CLOUD COVER ABOVE
       12000 FEET.
       "FAIR" INDICATES FEW OR NO CLOUDS BELOW 12,000 FEET WITH NO
       SIGNIFICANT WEATHER AND/OR OBSTRUCTIONS TO VISIBILITY.


NEZ001>004-019>022-054>056-211100-
NEBRASKA PANHANDLE

CITY           SKY/WX    TMP DP  RH WIND       PRES   REMARKS
SCOTTSBLUFF    MOCLDY    67  58  72 CALM      29.96F
ALLIANCE       PTCLDY    64  59  83 W7        29.93F
CHADRON        CLOUDY    68  61  78 NW8       29.92R
GORDON         FAIR      69  64  84 CALM      29.89F
KIMBALL        CLOUDY    64  57  78 W6        30.06F
SIDNEY         PTCLDY    69  55  60 NW3       30.00F
$$

NEZ057>060-069>072-079>082-211100-
SOUTHWEST NEBRASKA

CITY           SKY/WX    TMP DP  RH WIND       PRES   REMARKS
NORTH PLATTE   PTCLDY    70  68  93 CALM      29.85F
IMPERIAL       PTCLDY    71  67  87 S3        29.89F
LEXINGTON      CLEAR     74  62  65 S7        29.85S
MCCOOK         PTCLDY    73  60  63 S10       29.85F
OGALLALA       PTCLDY    73  70  90 W5        29.90F
$$

NEZ005>010-023>029-035>040-094-211100-
NORTH CENTRAL NEBRASKA

CITY           SKY/WX    TMP DP  RH WIND       PRES   REMARKS
VALENTINE      MOCLDY    75  69  81 N21G26    29.89R
AINSWORTH      CLEAR     73  73 100 CALM      29.84S FOG
BROKEN BOW     CLEAR     74  62  66 VRB3      29.83F
O`NEILL        LGT RAIN  77  66  68 N7G43     29.81F
ORD            CLEAR     77  61  57 S8        29.78F
THEDFORD       PTCLDY    72  71  98 SW7       29.86S FOG
$$

NEZ041-046>049-061>064-073>077-083>087-211100-
SOUTH CENTRAL NEBRASKA

CITY           SKY/WX    TMP DP  RH WIND       PRES   REMARKS
GRAND ISLAND   CLEAR     76  66  71 S14       29.84F
AURORA         MOCLDY    76  67  73 S10       29.86F
HASTINGS       CLEAR     77  62  59 S9        29.87F
HEBRON         CLEAR     79  67  66 S10       29.87F
HOLDREGE       CLEAR     74  60  62 S9        29.86F
KEARNEY        CLEAR     76  62  62 S14       29.85F
YORK           CLEAR     75  68  78 S9        29.86F
$$

NEZ011>018-030>034-042>045-211100-
NORTHEAST NEBRASKA

CITY           SKY/WX    TMP DP  RH WIND       PRES   REMARKS
NORFOLK        CLOUDY    81  67  62 NE7       29.83R
ALBION         CLOUDY    78  67  69 S10       29.81F
BLAIR          CLOUDY    82  70  67 S10       29.85F
COLUMBUS       CLEAR     80  67  64 S15G22    29.83F
FREMONT        CLOUDY    82  67  59 S10       29.84F
TEKAMAH        CLOUDY    82  69  64 S9        29.83S
WAYNE          CLOUDY    78  77  98 NE5       29.85S
$$

NEZ050>053-065>068-078-088>093-211100-
SOUTHEAST NEBRASKA

CITY           SKY/WX    TMP DP  RH WIND       PRES   REMARKS
LINCOLN        CLEAR     80  68  66 S12       29.85F
OMAHA EPPLEY   CLOUDY    84  71  65 S12       29.85F
BEATRICE       CLEAR     81  69  67 S9        29.88S
FALLS CITY     CLEAR     80  72  76 S6        29.88F
NEBRASKA CITY  CLEAR     78  74  88 S10       29.87F
PLATTSMOUTH    CLOUDY    80  70  73 S13       29.86F
$$

NEZ044-045-051>053-067-211100-
OMAHA AREA

CITY           SKY/WX    TMP DP  RH WIND       PRES   REMARKS
OMAHA EPPLEY   CLOUDY    84  71  65 S12       29.85F
BLAIR          CLOUDY    82  70  67 S10       29.85F
FREMONT        CLOUDY    82  67  59 S10       29.84F
MILLARD        PTCLDY    83  73  72 SE5       29.85F
OFFUTT AFB     CLOUDY    80  72  75 SE8       29.85F
PLATTSMOUTH    CLOUDY    80  70  73 S13       29.86F
WAHOO          FAIR      78  67  68 S6        29.84F
$$



USA.gov is the U.S. government's official web portal to all federal, state and local government web resources and services.